Theta_e
320 322 322 321 319 318 317 315 314 313 313 314 315 316 316 317 316 311 301 306 310 320 316 309 310 311 314 312 314 314 306 303 303 304 307 311 309 310 310 308 307 306 305 307 308
318 319 322 321 320 317 317 316 315 314 313 314 315 316 316 317 308 303 309 315 319 321 308 306 306 309 310 310 312 310 306 305 309 310 309 310 309 308 307 306 305 303 304 307 307
315 317 318 322 320 318 318 316 315 315 315 314 316 317 315 315 302 300 314 319 320 316 309 307 308 308 308 311 310 308 304 308 308 309 312 309 308 310 307 305 308 306 303 305 306
314 315 315 317 321 318 318 318 316 315 315 316 317 317 315 311 293 306 323 321 319 311 307 305 307 305 306 305 308 304 303 305 305 307 310 308 310 307 309 307 308 310 307 305 305
313 314 315 317 320 320 318 318 317 315 314 314 315 317 311 301 300 313 320 317 310 308 304 304 303 305 304 307 307 305 303 304 306 306 309 309 307 307 307 307 307 308 306 305 305
313 313 315 318 319 320 319 319 316 315 315 315 316 315 305 295 307 314 312 308 307 306 304 305 304 308 307 306 306 304 304 304 304 305 305 306 305 304 306 306 305 305 305 305 305
312 313 316 319 320 320 320 318 316 315 316 316 316 309 302 298 307 311 309 306 307 306 303 306 308 308 309 304 304 303 300 302 303 303 301 302 300 301 304 305 304 304 305 305 305
311 314 317 319 320 319 320 318 318 317 317 317 314 308 296 305 309 305 308 306 308 307 307 308 309 308 307 305 303 302 302 298 301 301 300 300 298 304 303 302 303 304 305 304 304
311 313 318 319 319 319 319 318 318 318 317 316 306 303 293 305 302 305 307 303 305 306 307 306 308 305 303 301 299 301 296 298 298 301 300 300 299 300 301 302 303 303 304 304 304
310 313 317 318 318 318 318 318 318 318 316 312 306 297 297 295 302 303 305 306 302 304 303 304 303 299 301 299 291 295 296 297 298 298 297 299 299 301 299 300 301 304 304 304 304
308 311 315 317 318 318 317 312 305 302 307 298 296 294 294 300 303 301 304 303 303 300 294 300 295 292 296 299 300 299 298 297 298 296 295 297 299 301 303 299 300 302 303 304 304
307 309 312 316 317 318 315 304 303 304 298 304 300 297 299 301 294 298 304 297 297 293 296 294 291 296 298 299 298 297 295 295 294 293 294 296 296 299 301 301 302 302 302 303 304
307 308 310 312 314 314 310 305 307 305 294 298 301 297 297 300 295 296 300 299 294 292 294 291 292 297 296 296 295 295 293 294 293 292 293 292 292 295 299 301 302 303 304 304 304
308 308 309 311 308 310 306 306 310 309 290 292 295 298 298 299 293 301 302 299 295 292 293 292 294 294 294 293 295 291 297 295 292 291 288 291 286 294 297 296 299 301 302 304 303
308 308 308 311 305 305 306 309 309 307 283 295 293 303 299 294 294 295 301 297 292 292 293 290 291 292 291 292 296 292 296 294 293 291 290 290 287 292 294 294 296 298 300 303 304
308 307 308 306 304 306 309 312 306 286 282 289 293 292 291 293 293 295 296 298 297 293 293 291 293 294 293 294 296 294 293 292 291 290 285 288 288 291 294 295 297 299 299 302 303
308 307 306 308 302 307 312 304 285 283 292 286 288 292 291 289 290 292 291 290 289 286 286 289 289 292 292 290 293 294 291 285 284 284 282 285 287 290 296 297 297 298 300 301 302
308 307 304 307 310 307 305 293 282 287 288 294 291 291 288 290 290 290 290 287 292 291 288 284 282 289 292 292 289 290 291 287 281 281 284 284 283 289 296 298 297 299 300 301 300
308 303 302 306 306 306 298 284 286 290 294 290 290 287 287 289 289 289 289 289 291 292 287 285 285 290 290 291 294 289 287 293 285 281 283 287 289 293 295 295 295 296 298 298 298
299 297 298 306 305 301 288 286 289 296 296 293 287 289 285 286 287 287 287 292 291 293 294 290 285 288 289 291 292 291 294 285 286 283 281 286 286 289 294 293 295 295 296 298 298
296 290 299 305 302 290 283 286 291 297 297 292 292 288 288 286 287 286 288 291 294 292 293 291 288 284 288 286 287 287 287 289 289 287 283 283 288 295 295 297 297 297 298 299 298
293 284 300 304 286 285 285 287 293 294 298 295 296 293 289 289 286 287 287 291 295 294 288 291 289 283 284 289 291 291 289 289 285 283 286 286 287 294 295 296 296 298 299 300 299
287 285 298 300 282 283 287 288 292 291 294 294 293 294 292 289 285 289 290 295 294 292 290 291 288 283 282 286 288 286 289 290 291 290 285 283 287 294 294 293 295 297 299 299 299
285 280 285 289 293 287 285 285 286 293 293 295 294 295 291 289 291 289 289 292 294 293 295 293 289 286 283 286 288 284 287 289 288 285 285 286 289 293 294 295 295 295 298 299 298
286 284 287 280 283 288 288 287 285 285 293 294 291 293 291 286 288 287 290 290 291 293 293 292 284 287 288 289 289 288 287 288 286 288 285 288 289 293 297 298 299 298 297 298 297
284 285 288 286 288 286 287 284 285 287 289 288 286 291 294 288 291 288 292 290 289 292 290 292 284 287 283 288 288 285 287 289 288 288 289 289 289 297 299 297 298 297 296 296 297
288 294 291 287 285 283 284 285 285 289 290 292 291 290 289 293 296 295 295 295 295 291 290 289 286 284 281 287 286 281 285 287 289 290 290 286 291 295 294 294 295 297 296 296 297
Wind_Speed
10 13 12 10 8 8 6 5 5 5 5 6 6 6 6 4 4 6 7 1 1 4 2 4 5 4 6 3 1 2 6 5 4 5 10 11 8 3 2 8 5 4 7 5 18
8 13 10 11 9 8 7 5 5 5 4 5 6 7 6 5 7 8 3 2 3 3 7 9 9 7 6 3 3 4 7 4 2 5 10 12 4 8 6 8 5 7 9 15 16
6 10 11 8 10 9 8 7 6 4 4 5 6 6 6 7 7 3 2 4 3 4 6 6 7 9 8 5 3 3 4 5 3 5 8 11 5 5 3 7 7 11 15 16 15
8 9 11 10 11 10 9 8 7 5 3 3 5 6 5 7 3 3 3 4 1 5 7 7 8 10 10 8 4 5 4 2 3 2 6 10 8 5 5 8 5 6 17 18 15
9 12 12 12 9 11 10 9 7 6 4 4 6 6 4 6 2 3 3 4 4 5 9 11 11 12 12 8 6 5 6 4 5 4 5 5 6 1 6 5 6 12 15 16 14
11 13 15 14 10 11 10 8 7 6 5 3 4 5 5 6 3 2 3 3 3 7 8 8 8 10 8 5 9 4 7 8 5 7 5 5 4 3 7 8 8 11 13 14 14
12 16 17 13 13 13 10 10 7 7 6 3 1 5 5 2 2 2 3 2 3 3 8 4 4 7 6 7 4 8 7 7 7 6 4 3 7 10 9 9 10 10 12 13 13
11 15 17 11 16 14 11 9 8 7 7 4 0 4 4 2 2 3 4 4 3 2 3 1 3 3 3 8 6 7 5 8 9 7 4 5 6 9 9 10 11 12 12 13 14
9 14 12 11 14 13 11 9 7 8 3 5 5 3 2 1 3 4 5 6 6 4 2 4 2 4 5 10 7 9 9 15 8 7 3 9 6 10 7 10 12 12 13 13 14
7 11 10 12 14 13 11 7 6 9 5 3 0 4 4 3 4 5 3 8 4 9 6 6 6 9 10 12 12 11 15 5 12 6 7 11 15 8 9 11 13 14 14 15 16
4 6 6 12 12 13 12 7 5 4 8 4 2 1 3 3 3 5 4 7 7 12 10 12 11 18 20 17 15 10 11 13 6 7 4 13 17 17 13 13 13 14 15 16 17
3 3 5 7 10 11 9 4 1 5 5 9 1 2 2 2 4 8 6 10 10 13 11 7 17 16 13 15 15 9 9 10 4 2 4 12 18 17 17 20 19 18 17 18 17
6 4 2 3 4 5 6 5 2 1 3 6 7 4 4 7 3 14 12 5 13 16 16 12 1 11 8 10 14 14 13 10 6 3 7 9 16 20 20 22 19 20 18 18 20
12 8 5 6 3 4 6 6 1 1 3 5 8 7 7 6 6 8 11 5 6 16 13 12 8 11 12 16 17 16 9 5 4 4 7 2 8 12 8 14 19 21 20 21 20
15 12 8 9 2 4 3 7 1 2 6 13 6 4 8 8 12 7 5 4 10 10 9 6 10 14 16 16 15 4 7 7 5 6 7 10 7 5 4 10 18 20 21 21 21
16 14 10 3 0 2 4 10 4 2 7 6 7 11 11 11 4 8 9 3 3 6 4 2 1 4 3 3 9 14 9 5 2 4 7 14 11 6 9 10 11 16 20 18 18
18 16 10 5 2 6 8 6 5 6 4 7 9 11 16 12 9 12 18 13 10 8 9 2 4 3 2 7 6 10 13 4 4 5 8 3 7 15 9 6 4 4 10 17 16
20 16 6 5 5 6 5 6 8 8 8 6 8 14 13 15 10 11 17 16 19 12 10 11 8 11 10 6 9 18 15 6 7 6 6 3 10 8 9 10 6 7 3 10 16
22 8 6 7 5 3 4 6 10 7 12 13 15 13 12 13 7 12 18 18 17 18 10 9 8 3 1 1 8 10 14 2 4 2 3 6 8 13 15 14 8 10 9 11 15
10 9 9 12 6 3 4 13 7 3 9 18 10 10 11 17 11 15 16 12 16 21 8 4 4 1 2 2 4 5 10 6 5 5 7 8 6 10 3 9 11 12 13 12 14
8 7 11 13 5 1 11 10 7 6 9 15 14 10 9 12 15 10 9 6 23 18 15 4 2 3 4 11 13 5 6 6 4 9 5 4 7 9 10 2 8 12 12 13 14
8 7 12 13 8 3 14 10 6 10 4 4 5 7 11 12 15 13 17 7 14 15 17 12 1 6 9 2 3 11 17 19 8 7 9 8 10 2 1 3 3 5 9 11 13
10 4 8 11 14 13 4 7 18 9 13 7 8 7 4 11 7 15 8 4 7 16 11 12 5 4 2 4 4 9 13 11 19 4 12 7 6 2 2 3 5 6 10 12 13
6 7 4 4 10 17 13 8 12 10 11 8 7 6 8 8 12 6 10 4 2 12 1 10 4 13 16 5 9 9 15 16 14 11 18 22 13 4 5 7 5 6 8 12 13
5 7 9 15 15 19 22 15 18 10 15 14 6 15 9 4 7 5 3 4 3 1 5 5 8 14 19 18 5 9 14 21 22 30 18 26 24 17 14 5 6 8 9 12 14
7 8 8 15 20 18 21 17 21 24 13 13 5 14 13 6 7 5 6 5 3 3 7 6 5 6 16 14 12 12 12 21 28 29 30 25 27 7 13 1 5 8 10 12 14
3 4 10 17 19 15 21 25 27 21 19 16 15 13 15 13 2 6 6 7 1 6 6 7 7 6 13 7 7 11 30 17 23 26 25 26 32 13 12 9 8 9 12 14 14
Wind_Direction
350 332 241 233 235 239 225 242 259 266 286 301 303 299 285 259 233 214 217 94 20 148 247 181 221 210 242 192 267 333 250 182 140 171 134 151 164 111 87 127 83 54 43 89 130
348 308 330 229 226 234 226 217 245 263 274 290 298 300 292 266 244 231 83 171 142 191 204 195 198 189 203 200 179 255 263 67 9 66 147 160 178 141 165 143 130 112 103 121 145
297 300 320 298 224 226 229 217 213 244 271 281 293 302 292 265 253 178 76 169 172 213 269 240 245 208 212 217 169 140 336 110 99 56 137 151 150 149 204 188 139 179 154 155 160
319 312 309 308 230 224 220 220 206 210 259 295 307 307 296 237 228 64 107 129 161 222 213 188 194 202 213 203 170 200 88 12 123 72 146 161 135 187 232 71 56 95 154 161 170
311 311 305 297 253 216 217 227 206 191 229 278 299 311 250 210 282 101 136 128 179 187 193 194 193 204 216 195 185 217 130 99 114 141 154 123 169 81 205 122 107 123 153 167 172
313 310 302 283 240 205 209 200 200 209 214 251 295 302 251 228 36 140 144 145 192 193 194 210 214 209 219 196 227 113 134 127 149 138 133 199 167 214 150 150 138 152 165 172 176
314 313 305 271 212 190 197 182 206 211 211 209 315 263 255 329 10 137 177 166 165 228 185 194 286 217 155 152 146 143 138 152 169 160 132 250 212 219 129 173 169 180 173 175 179
316 313 301 233 187 173 175 185 197 220 229 184 92 256 272 24 39 173 186 141 162 166 268 124 218 129 300 114 134 187 217 201 154 175 137 227 264 159 158 183 190 188 181 183 184
320 321 311 178 163 159 168 185 207 219 211 160 190 260 231 136 199 171 215 167 147 138 105 133 218 162 159 185 180 201 226 221 160 199 155 222 273 128 175 207 211 196 191 190 188
320 329 305 153 152 160 165 177 153 145 178 200 261 225 168 189 143 154 167 182 149 146 133 184 191 200 209 202 207 201 225 221 237 154 216 229 246 199 184 211 221 206 201 196 199
306 326 320 156 164 167 142 137 172 192 222 220 214 341 149 101 194 174 161 171 159 178 178 193 200 208 204 215 229 243 222 233 212 98 261 244 256 252 210 203 218 215 208 204 206
228 285 4 162 179 176 181 179 1 19 210 205 340 210 131 174 137 166 176 177 178 184 178 176 223 209 216 213 228 239 227 233 85 118 237 275 266 261 246 237 218 222 214 208 202
187 211 192 116 142 182 196 171 41 320 256 170 213 204 180 199 161 173 185 180 194 193 194 189 270 209 178 192 208 222 231 238 270 159 233 283 269 249 234 234 224 222 220 208 203
186 182 174 140 170 139 190 150 51 266 65 188 196 215 163 221 190 150 206 197 190 204 202 231 136 173 187 207 209 223 214 269 186 264 275 252 293 288 241 214 221 215 214 209 201
184 174 176 192 119 179 137 127 315 360 213 138 152 113 161 190 128 178 143 201 173 164 183 175 176 181 203 207 201 241 143 193 180 251 312 231 264 257 61 235 227 217 213 210 198
185 169 158 143 9 116 145 124 83 141 229 159 141 175 165 186 143 130 170 86 55 165 227 101 348 249 206 67 198 139 126 123 178 252 253 240 222 246 235 249 251 210 210 203 201
183 168 178 157 193 152 161 119 186 217 204 182 180 178 187 179 158 174 183 184 169 158 189 151 171 144 202 123 129 177 166 169 232 209 245 35 222 254 252 206 231 233 218 199 195
172 166 192 177 161 159 165 178 192 182 201 132 155 162 186 157 193 191 181 197 212 214 162 180 207 177 178 219 173 200 193 171 210 202 239 159 225 245 251 277 290 177 191 188 186
156 169 186 169 157 190 171 205 213 186 164 150 145 156 188 191 175 174 202 208 201 200 190 195 211 120 277 119 177 186 222 325 90 90 269 210 249 271 245 237 219 215 189 189 187
153 163 190 155 149 170 167 220 213 174 163 163 168 174 176 188 181 188 188 221 212 202 249 212 184 246 81 286 225 239 152 186 221 209 234 248 246 248 251 246 216 219 208 191 183
152 159 165 158 138 159 210 211 186 188 181 180 198 171 190 181 185 191 200 213 199 189 198 222 254 107 150 212 179 173 187 215 241 228 242 265 250 196 240 287 221 216 194 193 181
158 175 158 162 169 206 222 199 226 178 199 187 267 157 178 180 190 199 212 229 201 170 195 192 68 170 192 56 285 254 217 203 208 187 236 271 248 162 292 294 267 252 177 190 178
155 113 174 190 188 206 185 202 221 210 197 184 185 195 165 173 179 207 203 219 200 181 187 166 209 148 180 238 197 233 218 245 237 296 222 220 240 85 149 255 233 249 182 177 176
133 141 150 197 216 193 183 193 202 216 225 186 191 164 162 192 220 196 215 80 215 192 22 149 226 226 227 233 145 207 215 215 230 233 231 237 248 240 232 239 200 216 198 186 183
161 154 175 174 197 194 192 176 194 202 214 204 214 207 175 142 190 208 190 115 92 86 136 122 220 245 258 276 313 279 213 206 212 232 220 245 241 239 258 279 236 195 195 189 187
144 144 176 178 178 178 189 203 193 195 179 208 172 200 205 165 186 149 191 151 169 154 179 138 248 258 262 262 253 270 256 222 216 228 239 248 261 242 243 346 221 193 188 199 200
143 165 157 156 172 178 189 190 202 193 213 210 197 220 217 228 215 58 51 15 69 180 165 162 192 211 255 267 237 267 235 234 232 231 234 233 244 231 232 224 234 211 203 208 204